User: anonymous   Login
Location: Eymir
(36.7333°N, 29.7833°E)
Time: 02:50:18
(UTC+00:00)
Language:

VELOX 1 - Orbit

View from above orbital plane
View from above orbital plane
View from above satellite
View from above satellite

Ground track
Ground track

The orbit is defined by the following mean orbital elements,

1 40057U          26135.25499791 +.00000000 +00000-0 +23499-3 0 00002
2 40057  98.2562  38.3948 0007996  27.4144 332.7497 14.97553162    06
Epoch (UTC): 15 May 2026 06:07:11
Eccentricity: 0.0007996
inclination: 98.2562°
perigee height: 569 km
apogee height: 580 km
right ascension of ascending node: 38.3948°
argument of perigee: 27.4144°
revolutions per day: 14.97553162
mean anomaly at epoch: 332.7497°

The dashed part of the orbit path shows where the satellite is in the earth's shadow,  

DLR